Vorticity
6 3 -1 -7 -8 -4 3 5 5 4 2 3 4 7 9 10 10 10 13 16 18 18 16 13 10 9 9 10 11 12 12 12 11 10 9 8 7 6 5 5 5 5 5 6 6 7 7 8 8 8 8 8 9 9 9 9 9 9 9 9 9 9 8 8 8 8 9 9 9 9 9 9 9 9 8 8 8 8 8 8 8 8 8 8 8 8
3 1 -2 -4 -2 1 5 5 4 3 3 4 6 8 9 9 10 11 15 17 18 16 14 11 10 10 10 12 12 12 12 11 10 9 8 7 6 6 6 5 5 6 6 6 7 7 8 8 8 8 8 8 9 9 9 9 9 9 9 9 9 9 9 9 9 9 9 9 9 9 9 9 9 9 8 8 8 8 8 8 8 8 8 8 9 9
1 5 7 7 7 6 5 4 3 4 4 6 8 9 10 9 10 13 17 18 17 14 12 10 10 11 12 12 12 12 11 10 9 8 7 6 6 6 6 6 6 6 7 7 7 8 8 8 8 8 8 9 9 9 9 9 9 9 9 9 9 9 9 9 9 9 9 9 9 9 9 9 9 9 8 8 8 8 8 8 8 8 8 8 8 9
4 9 11 10 8 5 5 4 5 6 7 9 10 10 9 9 12 15 18 17 15 12 10 10 10 11 12 12 11 11 10 9 8 7 6 6 6 6 6 6 7 7 7 8 8 8 8 8 8 8 9 9 9 9 9 9 9 9 9 9 9 9 9 9 9 9 9 9 9 9 9 9 9 9 9 9 8 8 8 8 8 8 8 8 8 8
11 14 13 10 6 4 5 5 6 7 10 12 11 10 8 10 13 16 18 16 13 11 10 10 11 12 12 11 10 9 8 8 7 6 6 6 6 6 6 7 7 7 8 8 8 8 8 8 8 8 9 9 9 9 9 9 9 9 9 9 9 9 9 10 10 10 9 9 9 9 9 9 9 9 9 9 9 9 9 9 9 9 9 8 8 9
15 16 13 9 6 5 7 8 9 10 12 11 10 8 9 12 15 17 17 14 12 10 10 11 11 12 11 10 9 8 8 7 6 6 6 6 7 7 7 7 8 8 8 8 8 8 8 8 9 9 9 9 9 9 9 9 9 9 9 9 9 9 9 9 9 9 9 9 9 9 9 9 9 10 10 10 10 10 10 9 9 9 9 9 9 9
16 15 11 7 7 7 9 11 12 12 11 9 8 8 10 14 16 17 15 13 11 10 11 11 11 11 10 9 8 8 7 7 7 7 7 7 7 8 8 8 8 8 8 8 8 8 8 9 9 9 9 10 10 9 9 9 9 9 9 9 9 9 9 9 9 9 9 9 9 9 9 10 10 10 10 10 10 10 10 10 10 10 10 10 10 10
15 12 9 8 8 10 13 14 13 12 10 9 9 10 13 16 16 15 13 11 11 11 11 11 10 9 9 8 7 7 7 7 7 7 8 8 8 8 8 7 7 7 8 8 8 8 9 9 9 9 10 9 9 9 9 9 9 9 9 9 8 8 8 8 8 8 8 9 9 9 9 10 10 10 10 10 10 10 10 10 10 10 10 10 10 10
13 11 10 11 12 13 13 13 12 10 10 9 11 13 16 17 16 14 12 11 11 10 10 10 9 8 8 7 7 7 7 7 7 8 8 8 8 7 7 7 8 8 8 8 8 9 9 9 9 10 10 9 9 9 9 9 9 8 8 8 8 8 8 8 8 8 8 9 9 9 9 10 10 10 10 10 10 10 10 10 10 10 10 10 10 10
12 11 12 14 14 14 13 11 10 10 11 12 14 16 17 16 15 13 11 11 10 10 9 8 8 7 7 7 7 7 8 8 8 8 8 8 8 8 7 8 8 8 8 9 9 9 9 10 10 10 9 9 9 9 9 8 8 8 8 8 8 8 8 8 8 8 8 9 9 9 9 9 10 10 10 10 10 10 10 10 10 11 11 11 11 11
13 13 13 13 13 13 14 12 12 13 14 15 16 16 16 14 13 12 11 10 10 9 8 8 8 7 7 7 7 8 8 8 8 8 8 8 8 8 8 8 8 8 9 9 9 9 9 10 10 10 9 9 9 9 8 8 8 8 7 7 7 7 8 8 8 8 8 9 9 9 9 9 9 9 10 10 10 10 10 10 10 10 11 11 11 11
14 14 13 12 11 11 13 14 14 16 17 17 17 16 14 12 11 10 10 9 9 8 8 7 7 7 7 7 7 7 8 8 8 8 8 8 8 8 8 8 8 9 9 9 9 9 10 10 10 9 9 9 8 8 8 8 8 7 7 7 7 7 8 8 8 8 8 8 9 9 9 9 9 9 9 9 10 10 10 10 10 10 10 11 11 11
14 13 11 11 11 12 14 15 16 17 17 16 15 14 13 11 10 9 9 8 8 7 6 6 7 7 8 8 8 8 8 9 9 9 8 8 8 8 8 8 9 9 9 9 9 9 10 10 9 9 9 9 8 8 8 8 7 7 7 7 7 8 8 8 8 8 8 9 9 9 9 9 9 9 9 9 9 9 9 10 10 10 10 10 10 10
12 12 11 12 13 14 16 16 17 16 16 14 13 12 11 10 9 8 7 7 7 7 6 6 7 7 8 9 9 9 9 9 9 9 9 9 9 9 9 9 9 9 9 9 9 9 10 10 9 9 9 9 8 8 8 7 7 7 7 8 8 8 8 8 8 9 9 9 9 9 9 9 9 9 9 9 9 9 9 9 9 9 9 9 9 9
10 10 12 13 15 16 17 17 16 15 13 12 11 10 9 8 8 7 6 7 7 7 7 8 8 8 9 9 9 9 9 9 9 9 9 9 9 9 9 9 9 9 9 9 10 10 10 10 9 9 9 8 8 8 7 7 7 7 8 8 8 8 8 8 9 9 9 9 9 9 9 9 9 9 9 9 9 9 9 9 9 9 9 9 9 9
11 12 14 15 16 17 17 16 15 13 12 11 9 8 8 7 7 6 6 7 7 7 8 9 9 10 10 9 9 9 9 9 9 9 9 9 9 9 9 10 10 10 10 10 10 10 9 9 9 9 8 8 8 7 7 7 7 8 8 8 8 8 8 8 9 9 9 9 9 9 9 9 9 9 9 9 9 9 9 9 9 9 9 9 9 9
13 15 16 17 17 17 16 14 12 11 10 9 8 7 6 6 6 6 7 7 8 9 10 10 10 9 9 9 9 9 9 10 10 9 9 9 9 9 10 10 10 10 9 10 10 10 9 9 9 9 8 8 8 7 7 8 8 8 8 8 8 8 8 8 9 9 9 9 9 9 9 9 9 9 9 9 9 9 9 9 9 9 9 9 9 9
16 17 18 17 16 15 14 12 10 9 8 7 6 6 6 7 7 8 8 9 9 10 10 10 10 10 9 9 9 9 9 9 9 9 9 9 10 10 10 10 10 10 9 10 10 9 9 9 9 8 8 8 8 8 8 8 8 8 8 8 8 8 8 8 9 9 9 9 9 9 9 9 9 9 9 9 9 9 9 9 10 10 10 10 10 10
17 17 17 15 14 13 11 9 8 7 6 6 6 6 7 8 8 9 10 10 10 10 10 10 10 10 9 9 9 9 9 9 9 9 10 10 10 10 10 9 9 9 9 9 9 9 9 9 9 8 8 8 8 8 8 8 8 8 8 8 8 8 8 9 9 9 9 9 9 9 9 9 9 9 9 9 9 9 9 9 9 9 9 10 10 10
17 16 14 13 11 10 8 7 7 6 6 6 7 7 8 8 9 10 10 10 10 10 9 9 9 9 9 10 10 10 10 9 9 10 10 10 10 9 9 9 9 9 10 10 10 9 9 9 9 9 9 9 8 8 8 8 8 8 8 8 8 8 9 9 9 9 9 9 9 9 9 9 9 9 9 9 9 9 9 9 9 9 9 9 9 9
15 13 11 10 9 8 7 6 6 6 6 7 8 9 9 10 10 10 10 10 10 10 10 10 10 10 10 10 10 9 8 8 9 10 9 10 10 10 10 10 11 11 11 11 11 10 10 10 10 9 9 9 9 9 9 9 8 8 8 9 9 9 9 9 9 9 9 9 9 9 9 9 9 9 9 9 9 9 9 8 8 8 9 9 9 9
12 10 9 8 7 6 6 6 6 7 7 8 9 10 10 10 10 10 10 10 10 10 10 10 10 10 9 10 9 8 8 9 10 10 9 11 12 12 12 12 12 12 12 12 11 11 11 10 10 10 10 9 9 9 9 9 9 9 9 9 9 9 9 9 9 9 9 9 9 9 9 9 9 9 9 8 8 8 8 8 8 8 8 8 8 8
9 8 7 7 6 6 6 7 7 8 8 9 10 10 10 10 10 10 10 10 10 10 10 10 9 8 9 10 10 10 11 11 11 11 11 12 12 11 11 11 12 13 13 12 11 11 11 11 10 10 10 10 10 10 10 9 9 9 9 9 9 9 9 9 9 9 9 9 9 9 9 9 9 9 8 8 8 8 8 8 8 8 8 8 8 8
7 7 7 6 6 7 7 8 8 9 9 10 10 10 10 10 10 10 10 10 10 9 9 8 9 9 11 11 11 12 11 11 11 11 12 12 12 11 11 11 12 12 13 12 12 11 11 11 11 10 10 10 10 10 10 10 10 10 10 10 10 10 9 9 9 9 9 9 9 9 9 9 9 9 8 8 8 8 8 8 8 8 8 8 8 8
6 6 6 7 7 7 8 9 9 9 10 10 10 10 11 11 11 10 10 10 9 9 8 9 9 10 10 10 10 10 10 9 10 10 11 11 11 11 11 11 12 12 12 12 12 12 12 11 11 11 11 11 11 10 10 10 10 10 10 10 10 9 9 9 9 9 9 9 9 9 9 9 9 9 8 8 8 8 8 8 8 8 8 8 8 8
6 6 7 7 8 8 9 9 10 10 10 10 10 10 10 10 10 9 9 10 9 8 8 9 9 9 8 8 9 9 9 9 10 10 10 10 11 11 11 11 12 12 12 12 12 12 12 11 11 11 11 11 11 10 10 10 10 10 10 10 10 9 9 9 9 9 9 9 9 9 9 9 9 8 8 8 8 8 8 8 8 8 8 8 8 8
7 7 8 8 9 9 9 10 10 10 10 11 10 10 10 9 8 8 9 9 8 7 7 8 8 8 7 8 9 9 8 8 9 10 10 10 10 11 11 11 11 11 11 11 11 11 11 11 10 10 10 10 10 10 10 10 10 10 10 10 10 10 10 10 10 10 10 9 9 9 9 9 9 8 8 8 8 8 8 8 8 8 8 8 8 8
8 8 9 9 9 10 10 10 10 10 10 10 10 10 9 8 8 8 8 7 6 6 7 7 7 7 7 8 8 7 7 8 9 9 9 10 11 11 10 10 10 10 10 10 10 10 10 10 10 10 10 10 10 10 10 10 10 10 10 10 10 10 10 10 10 10 10 10 9 9 9 9 9 8 8 8 8 8 8 8 8 8 8 8 8 8
9 9 9 10 10 10 10 10 10 10 10 10 9 9 8 8 8 7 7 5 6 7 8 8 8 8 7 7 7 7 8 9 9 9 8 10 11 10 9 9 9 9 8 8 8 8 9 9 9 9 9 9 9 9 9 10 10 10 10 10 10 10 10 10 10 10 10 10 10 9 9 9 9 8 8 8 8 8 7 8 8 8 8 8 9 9
10 10 10 10 10 10 10 10 10 9 9 9 8 8 7 7 7 7 6 6 7 7 8 8 8 8 8 8 8 8 9 9 8 7 7 9 9 9 7 8 8 8 7 7 8 8 8 8 8 8 8 8 8 9 9 9 9 10 10 10 10 10 10 10 10 10 10 10 10 10 9 9 9 8 8 8 8 8 8 8 8 8 8 9 9 9
10 10 10 10 10 10 10 9 9 9 8 8 7 7 6 7 7 7 7 7 7 8 8 8 8 8 8 8 8 8 8 8 7 7 7 8 8 8 7 7 8 8 8 8 8 8 8 8 8 8 8 8 8 8 9 9 9 10 10 10 10 10 11 11 11 11 11 10 10 10 10 9 9 8 8 8 8 8 8 8 8 8 9 9 9 10
10 10 10 10 9 9 9 8 8 8 7 7 7 7 6 7 7 7 7 7 8 8 8 8 8 8 8 9 9 9 8 7 7 7 7 8 8 8 8 8 8 9 9 9 9 9 9 8 8 8 8 8 8 9 9 10 10 10 10 11 11 11 11 11 11 11 11 10 10 10 10 9 9 9 8 8 8 8 8 8 9 9 9 9 10 10
10 10 9 9 9 8 8 8 7 7 7 6 6 6 7 7 7 7 8 8 8 8 8 9 9 9 9 9 9 9 9 8 8 8 8 8 9 9 9 9 9 9 9 10 10 10 10 9 8 8 8 9 9 9 9 10 11 11 11 11 11 12 11 11 11 11 11 10 10 10 10 9 9 9 8 8 8 8 8 9 9 9 9 10 10 10
9 9 9 8 8 8 7 7 7 7 6 6 6 6 7 7 7 7 8 8 8 9 9 9 9 9 8 8 8 9 9 9 8 8 8 9 9 9 10 10 10 10 9 9 9 9 9 9 9 8 9 9 9 9 10 11 11 12 12 12 12 12 11 11 11 11 11 10 10 10 10 9 9 9 8 8 8 8 8 9 9 9 10 10 10 10
8 8 8 8 7 7 7 7 6 6 6 6 6 6 6 7 7 7 8 8 8 9 9 9 9 9 8 8 8 8 9 8 8 8 8 9 10 10 11 11 10 10 9 9 8 8 8 8 9 9 9 9 10 10 11 12 12 12 12 13 13 12 12 12 11 11 11 11 10 10 10 9 9 9 8 8 8 8 8 9 9 9 10 10 10 10
8 8 8 7 7 7 6 6 6 6 6 6 6 6 7 7 7 8 8 8 8 8 8 8 8 8 9 9 9 9 9 9 8 8 9 10 10 11 11 10 10 9 8 8 7 7 7 8 9 10 10 10 10 10 12 13 13 13 14 14 14 13 13 12 12 11 11 11 11 10 10 9 9 8 8 8 8 8 8 8 9 9 9 10 10 10
8 7 7 7 6 6 6 6 6 6 6 7 7 7 8 8 8 8 8 8 8 8 7 8 8 8 9 9 10 10 10 10 10 10 10 10 10 10 10 9 8 7 7 6 6 6 7 8 9 10 13 13 12 11 10 11 13 14 15 14 13 13 12 12 12 11 11 11 10 10 9 9 8 8 8 8 8 8 8 8 9 9 9 10 10 11
6 6 6 6 6 6 6 6 6 7 7 8 8 9 9 9 9 9 8 8 8 8 8 9 9 9 10 10 11 11 11 11 11 10 10 10 10 9 9 8 8 7 5 5 5 5 6 7 9 11 13 14 14 13 11 11 13 14 14 13 13 12 12 11 11 11 11 10 10 10 9 9 8 8 8 8 7 8 8 8 9 9 10 11 11 11
5 5 5 6 6 6 7 7 8 8 9 9 9 9 9 9 9 9 9 9 9 9 10 11 11 11 11 11 11 11 10 10 10 9 9 9 9 9 9 8 8 7 6 5 5 5 7 9 10 11 12 12 13 14 14 14 14 14 13 13 13 13 13 12 11 11 10 10 10 9 9 8 8 8 8 7 7 7 8 8 9 9 10 10 11 11
5 5 5 6 7 7 8 8 9 9 9 9 10 10 10 10 10 10 10 10 10 11 11 11 11 11 11 10 10 9 9 8 8 8 8 9 9 9 9 9 8 7 7 6 6 6 7 9 11 13 14 14 14 14 14 14 14 13 12 12 12 12 11 11 11 10 10 10 9 9 8 8 8 8 8 7 8 8 8 9 9 10 10 10 10 10
6 6 6 7 8 8 9 9 9 9 9 9 9 9 10 10 9 9 9 10 10 10 10 10 10 9 9 9 8 8 7 7 7 7 7 8 8 9 9 9 9 8 7 7 7 7 8 9 11 13 15 17 17 16 16 15 13 12 12 12 11 11 10 10 10 10 9 9 9 9 8 8 8 8 8 8 8 8 9 9 9 10 11 11 10 10
7 7 8 8 9 9 9 9 9 9 10 10 10 10 9 9 9 9 9 9 9 9 9 9 9 9 8 8 8 7 7 7 7 7 7 8 8 8 9 9 9 8 7 7 8 8 9 10 11 13 15 15 16 17 17 15 13 12 12 11 10 10 10 11 10 10 9 9 9 9 9 8 8 8 8 8 8 8 8 9 10 10 10 10 10 10
8 8 9 9 9 9 9 9 9 10 10 10 10 9 9 9 9 8 8 9 9 9 9 9 9 9 8 8 8 7 7 7 7 7 8 8 8 8 8 8 8 8 8 8 9 10 10 12 14 15 16 16 16 17 16 14 12 11 11 10 9 9 9 10 10 10 10 9 9 9 9 9 8 8 8 8 8 8 8 9 10 10 10 10 10 10
9 9 9 9 9 9 9 9 9 10 10 9 9 9 8 8 8 8 9 9 10 10 10 10 9 8 8 8 8 8 8 8 8 8 8 8 9 9 9 9 9 9 10 10 10 10 11 13 16 17 16 16 17 17 16 14 12 11 10 9 9 9 10 8 8 8 9 9 9 9 9 9 8 8 8 8 8 8 9 9 10 10 10 10 10 10
9 9 9 9 9 9 9 9 9 10 10 10 9 9 9 9 9 9 10 10 10 9 9 8 7 7 7 7 7 8 8 9 9 9 9 9 9 10 10 10 10 11 12 13 13 13 12 14 15 15 15 17 17 16 15 13 12 10 9 8 9 10 10 9 9 9 9 9 9 9 9 9 8 8 8 8 8 9 9 9 9 9 9 10 10 11
8 8 8 9 9 9 9 9 10 10 10 10 9 9 9 9 9 9 8 7 7 6 5 4 4 5 6 6 6 7 8 9 10 10 10 10 10 10 11 11 11 12 12 14 15 16 17 17 15 13 14 16 16 16 14 12 11 10 9 8 9 9 9 9 9 9 9 9 9 9 9 8 8 8 8 8 9 9 9 9 9 9 9 10 10 11
7 8 8 8 9 9 9 10 10 9 9 8 8 8 8 7 7 6 5 4 4 3 3 3 5 6 6 6 6 7 8 8 9 10 10 10 10 10 11 11 12 13 13 14 15 17 19 19 18 16 14 14 14 13 13 12 11 10 9 8 9 9 9 9 9 9 9 9 9 9 8 8 9 9 9 9 9 9 9 9 10 10 10 10 10 11
9 9 9 9 9 9 9 9 8 8 7 7 7 6 6 6 5 4 3 3 3 3 3 4 5 7 7 7 8 8 9 9 9 9 9 9 10 10 10 11 12 13 14 15 16 18 19 20 19 18 16 14 13 12 11 10 10 10 9 9 9 9 9 9 8 8 9 9 9 9 8 8 9 8 8 8 9 9 9 10 10 10 10 10 11 11
12 12 11 10 9 9 8 7 7 6 6 6 6 6 6 5 4 3 3 3 3 4 4 5 6 7 7 8 8 9 10 10 9 9 8 8 9 9 11 11 12 13 14 16 18 19 20 21 20 19 16 14 13 12 10 10 10 10 10 10 10 10 10 9 9 8 9 9 9 9 9 9 9 8 8 8 9 9 9 10 10 10 10 10 11 11
13 12 11 9 8 7 6 6 6 6 5 5 5 5 4 3 3 3 4 4 5 5 6 7 7 8 9 9 9 9 10 9 9 8 9 8 9 10 11 12 13 14 15 17 18 18 18 19 19 18 17 15 13 12 11 10 10 10 11 11 11 10 10 9 9 9 9 9 9 9 9 9 9 9 9 10 10 10 10 10 11 11 10 10 11 11
11 9 8 7 7 6 6 6 6 5 5 4 4 3 3 3 4 5 5 6 6 7 7 8 8 9 9 9 9 10 10 9 9 9 9 9 9 10 11 12 13 14 14 16 16 16 16 15 14 14 15 15 14 12 11 10 10 10 11 11 11 10 10 10 9 9 9 9 9 9 9 9 9 9 9 9 10 10 11 11 11 11 10 10 10 11
Height
3082 3083 3083 3083 3082 3082 3082 3082 3081 3081 3081 3081 3081 3081 3081 3080 3080 3080 3079 3079 3078 3078 3078 3078 3077 3077 3077 3077 3077 3076 3076 3076 3076 3076 3076 3076 3076 3076 3076 3076 3076 3076 3076 3076 3076 3076 3076 3075 3075 3075 3075 3075 3075 3075 3075 3075 3075 3074 3074 3074 3074 3074 3074 3074 3073 3073 3073 3073 3073 3073 3073 3073 3073 3072 3072 3072 3071 3071 3071 3071 3070 3070 3070 3070 3070 3070
3079 3080 3080 3080 3080 3080 3080 3080 3079 3079 3079 3079 3079 3079 3079 3079 3078 3078 3077 3077 3076 3076 3076 3076 3076 3076 3075 3075 3075 3075 3075 3075 3075 3075 3075 3075 3075 3075 3075 3075 3075 3075 3075 3074 3074 3074 3074 3074 3074 3074 3074 3073 3073 3073 3073 3073 3073 3073 3073 3073 3072 3072 3072 3072 3072 3072 3072 3072 3072 3072 3071 3071 3071 3071 3070 3070 3070 3070 3069 3069 3069 3069 3069 3069 3068 3068
3076 3077 3077 3078 3078 3078 3078 3077 3077 3077 3076 3077 3077 3077 3077 3077 3076 3076 3075 3075 3075 3075 3075 3075 3074 3074 3074 3074 3074 3074 3074 3074 3074 3073 3073 3073 3073 3073 3073 3073 3073 3073 3073 3073 3073 3073 3072 3072 3072 3072 3072 3072 3072 3072 3071 3071 3071 3071 3071 3071 3071 3071 3071 3071 3070 3070 3070 3070 3070 3070 3070 3070 3070 3069 3069 3069 3068 3068 3068 3068 3067 3067 3067 3067 3067 3067
3075 3075 3075 3075 3076 3075 3075 3075 3075 3075 3075 3075 3075 3075 3075 3075 3074 3074 3074 3073 3073 3073 3073 3073 3073 3073 3072 3072 3072 3072 3072 3072 3072 3072 3072 3072 3072 3072 3072 3071 3071 3071 3071 3071 3071 3071 3071 3070 3070 3070 3070 3070 3070 3070 3070 3070 3070 3070 3070 3070 3070 3069 3069 3069 3069 3069 3069 3069 3069 3069 3068 3068 3068 3068 3067 3067 3067 3067 3066 3066 3066 3066 3065 3065 3065 3065
3072 3073 3073 3073 3073 3073 3073 3073 3073 3072 3073 3073 3073 3073 3073 3073 3072 3072 3072 3071 3071 3071 3071 3071 3071 3071 3071 3071 3071 3071 3071 3071 3071 3071 3070 3070 3070 3070 3070 3070 3070 3070 3070 3070 3070 3069 3069 3069 3069 3069 3069 3069 3069 3069 3068 3068 3068 3068 3068 3068 3068 3068 3068 3068 3068 3067 3067 3067 3067 3067 3067 3066 3066 3066 3066 3066 3065 3065 3065 3065 3065 3064 3064 3064 3064 3064
3070 3070 3070 3070 3070 3070 3071 3070 3070 3071 3071 3071 3071 3071 3070 3070 3070 3070 3070 3070 3070 3070 3070 3070 3070 3070 3070 3070 3070 3070 3070 3070 3069 3069 3069 3069 3069 3069 3069 3069 3069 3068 3068 3068 3068 3068 3067 3067 3067 3067 3067 3067 3067 3067 3067 3067 3067 3066 3066 3066 3066 3066 3066 3066 3066 3066 3066 3065 3065 3065 3065 3065 3065 3065 3064 3064 3064 3064 3064 3063 3063 3063 3063 3062 3062 3062
3068 3068 3068 3068 3068 3068 3068 3068 3069 3069 3069 3069 3069 3069 3069 3069 3068 3068 3068 3068 3068 3068 3068 3068 3068 3068 3068 3068 3068 3068 3068 3068 3068 3068 3068 3067 3067 3067 3067 3067 3067 3067 3067 3066 3066 3066 3066 3066 3066 3065 3065 3065 3065 3065 3065 3065 3065 3065 3065 3065 3065 3065 3065 3065 3064 3064 3064 3064 3064 3064 3063 3063 3063 3063 3063 3063 3062 3062 3062 3062 3061 3061 3061 3061 3061 3060
3065 3065 3065 3065 3066 3066 3066 3066 3066 3067 3067 3067 3067 3067 3067 3067 3067 3067 3066 3066 3066 3066 3067 3067 3066 3066 3066 3066 3067 3067 3066 3066 3066 3066 3066 3066 3066 3066 3066 3066 3065 3065 3065 3065 3065 3065 3065 3065 3064 3064 3064 3064 3064 3064 3064 3064 3063 3063 3063 3063 3063 3063 3063 3063 3063 3062 3062 3062 3062 3062 3062 3062 3061 3061 3061 3061 3061 3060 3060 3060 3060 3060 3060 3059 3059 3059
3063 3063 3063 3063 3063 3064 3064 3064 3064 3065 3065 3065 3065 3065 3065 3065 3065 3065 3065 3065 3065 3065 3065 3065 3065 3065 3065 3065 3065 3065 3065 3065 3065 3065 3065 3065 3065 3065 3064 3064 3064 3064 3064 3064 3064 3063 3063 3063 3063 3063 3063 3063 3062 3062 3062 3062 3062 3062 3061 3061 3061 3061 3061 3061 3061 3061 3061 3060 3060 3060 3060 3060 3060 3060 3059 3059 3059 3059 3059 3058 3058 3058 3058 3058 3058 3057
3061 3061 3061 3061 3061 3062 3062 3062 3062 3062 3062 3063 3063 3063 3063 3063 3063 3063 3063 3063 3063 3063 3063 3064 3064 3064 3063 3063 3063 3063 3063 3063 3063 3063 3063 3063 3063 3063 3063 3063 3062 3062 3062 3062 3062 3062 3062 3062 3061 3061 3061 3061 3061 3061 3060 3060 3060 3060 3060 3060 3060 3060 3060 3060 3059 3059 3059 3059 3059 3059 3059 3058 3058 3058 3058 3057 3057 3057 3057 3057 3056 3056 3056 3056 3056 3056
3058 3059 3059 3059 3059 3060 3060 3060 3060 3060 3060 3060 3060 3061 3061 3061 3061 3061 3062 3062 3062 3062 3062 3062 3062 3062 3062 3062 3062 3061 3061 3061 3061 3061 3061 3061 3061 3061 3061 3061 3061 3061 3060 3060 3060 3060 3060 3060 3060 3060 3060 3060 3059 3059 3059 3059 3059 3059 3059 3058 3058 3058 3058 3058 3058 3058 3058 3057 3057 3057 3057 3057 3056 3056 3056 3056 3055 3055 3055 3055 3055 3055 3055 3054 3054 3054
3056 3056 3056 3057 3057 3057 3058 3058 3058 3058 3058 3058 3059 3059 3059 3060 3060 3060 3060 3060 3060 3060 3060 3060 3060 3060 3060 3060 3060 3060 3060 3060 3060 3060 3060 3059 3059 3059 3059 3059 3059 3059 3059 3059 3059 3059 3059 3059 3059 3058 3058 3058 3058 3058 3057 3057 3057 3057 3057 3057 3057 3056 3056 3056 3056 3056 3056 3056 3055 3055 3055 3055 3055 3055 3054 3054 3054 3054 3054 3053 3053 3053 3053 3053 3053 3052
3054 3054 3055 3055 3055 3055 3055 3055 3056 3056 3056 3056 3057 3057 3057 3058 3058 3058 3059 3059 3059 3059 3059 3059 3059 3059 3058 3058 3058 3058 3058 3058 3058 3058 3058 3058 3057 3057 3057 3057 3057 3057 3057 3057 3057 3057 3057 3057 3057 3057 3056 3056 3056 3056 3056 3056 3055 3055 3055 3055 3055 3055 3055 3055 3055 3054 3054 3054 3054 3054 3054 3053 3053 3053 3053 3053 3052 3052 3052 3052 3052 3051 3051 3051 3051 3051
3052 3052 3053 3053 3053 3053 3054 3054 3054 3054 3055 3055 3055 3055 3055 3056 3056 3057 3057 3057 3057 3057 3057 3057 3057 3057 3057 3057 3056 3056 3056 3056 3056 3056 3056 3056 3055 3055 3055 3055 3055 3055 3055 3055 3055 3055 3055 3055 3055 3055 3055 3055 3054 3054 3054 3054 3054 3054 3054 3053 3053 3053 3053 3053 3053 3052 3052 3052 3052 3052 3052 3052 3051 3051 3051 3051 3051 3050 3050 3050 3050 3050 3050 3050 3049 3049
3050 3050 3050 3051 3051 3051 3051 3052 3052 3052 3053 3053 3053 3053 3054 3055 3055 3055 3055 3055 3055 3055 3055 3055 3055 3055 3055 3055 3055 3055 3055 3055 3055 3055 3054 3054 3054 3054 3054 3054 3054 3053 3053 3053 3053 3053 3053 3053 3053 3053 3053 3053 3053 3052 3052 3052 3052 3052 3052 3052 3051 3051 3051 3051 3051 3051 3050 3050 3050 3050 3050 3050 3050 3050 3050 3049 3049 3049 3049 3049 3049 3048 3048 3048 3048 3047
3048 3048 3049 3049 3049 3050 3050 3050 3050 3050 3051 3051 3051 3052 3052 3053 3053 3053 3053 3054 3054 3054 3054 3054 3054 3054 3053 3053 3053 3053 3053 3053 3053 3053 3052 3052 3052 3052 3052 3052 3052 3052 3051 3051 3051 3051 3051 3051 3051 3051 3051 3051 3051 3051 3050 3050 3050 3050 3050 3050 3050 3050 3049 3049 3049 3049 3049 3049 3049 3048 3048 3048 3048 3048 3048 3048 3047 3047 3047 3047 3047 3047 3046 3046 3046 3046
3046 3046 3047 3047 3047 3048 3048 3048 3049 3049 3049 3050 3050 3050 3051 3051 3051 3051 3051 3052 3052 3052 3052 3052 3052 3052 3051 3051 3051 3051 3051 3051 3051 3051 3050 3050 3050 3050 3050 3050 3050 3050 3050 3050 3050 3050 3050 3050 3050 3050 3049 3049 3049 3049 3049 3049 3048 3048 3048 3048 3048 3048 3048 3047 3047 3047 3047 3047 3047 3046 3046 3046 3046 3046 3046 3046 3046 3045 3045 3045 3045 3045 3045 3045 3045 3044
3045 3045 3045 3045 3046 3046 3046 3047 3047 3048 3048 3048 3049 3049 3049 3050 3050 3050 3050 3050 3050 3050 3050 3050 3050 3050 3050 3049 3049 3049 3049 3049 3049 3049 3049 3049 3049 3049 3049 3049 3049 3048 3048 3048 3048 3048 3048 3048 3048 3047 3047 3047 3047 3047 3047 3047 3046 3046 3046 3046 3046 3046 3046 3046 3045 3045 3045 3045 3045 3045 3045 3045 3045 3044 3044 3044 3044 3044 3044 3044 3043 3043 3043 3043 3043 3042
3043 3043 3044 3044 3044 3045 3045 3045 3046 3046 3046 3047 3047 3047 3048 3048 3048 3048 3048 3048 3048 3048 3048 3048 3048 3048 3048 3048 3047 3047 3047 3047 3047 3047 3047 3047 3047 3047 3047 3047 3046 3047 3046 3046 3046 3046 3046 3046 3046 3045 3045 3045 3045 3045 3045 3045 3045 3045 3045 3044 3044 3044 3044 3044 3044 3044 3044 3043 3043 3043 3043 3043 3043 3042 3042 3042 3042 3042 3042 3042 3041 3041 3041 3041 3041 3040
3041 3042 3042 3042 3043 3043 3044 3044 3044 3045 3045 3045 3045 3046 3046 3046 3046 3046 3046 3046 3046 3046 3046 3046 3046 3046 3046 3046 3045 3045 3045 3045 3045 3045 3045 3045 3045 3045 3045 3045 3045 3045 3045 3045 3044 3044 3044 3044 3044 3044 3043 3043 3043 3043 3043 3043 3043 3043 3042 3042 3042 3042 3042 3042 3042 3042 3042 3041 3041 3041 3041 3041 3041 3040 3040 3040 3040 3040 3040 3040 3040 3040 3040 3039 3039 3039
3040 3040 3040 3041 3041 3042 3042 3042 3043 3043 3044 3044 3044 3044 3044 3044 3044 3044 3044 3044 3044 3044 3044 3044 3044 3044 3044 3044 3044 3044 3043 3043 3043 3043 3043 3043 3043 3043 3043 3043 3043 3043 3043 3042 3042 3042 3042 3042 3041 3041 3041 3041 3041 3041 3041 3041 3041 3040 3040 3040 3040 3040 3040 3040 3040 3040 3040 3040 3040 3039 3039 3039 3039 3039 3039 3039 3038 3038 3038 3038 3038 3038 3037 3037 3037 3037
3038 3039 3039 3040 3040 3040 3041 3041 3041 3042 3042 3042 3042 3042 3042 3042 3042 3042 3042 3042 3042 3042 3042 3042 3042 3042 3042 3042 3042 3042 3041 3041 3041 3041 3041 3041 3041 3041 3041 3041 3041 3041 3040 3040 3040 3040 3040 3040 3039 3039 3039 3039 3039 3039 3039 3039 3039 3039 3039 3038 3038 3038 3038 3038 3038 3038 3038 3037 3037 3037 3037 3037 3037 3037 3037 3037 3036 3036 3036 3036 3036 3036 3035 3035 3035 3035
3037 3038 3038 3039 3039 3039 3039 3040 3040 3040 3040 3040 3040 3040 3040 3041 3041 3041 3041 3041 3041 3041 3041 3041 3041 3041 3041 3041 3041 3040 3040 3040 3040 3040 3039 3039 3039 3039 3039 3039 3039 3039 3039 3039 3038 3038 3038 3037 3037 3037 3037 3037 3037 3037 3037 3037 3036 3036 3036 3036 3036 3036 3036 3036 3036 3036 3035 3035 3035 3035 3035 3035 3035 3035 3035 3035 3035 3034 3034 3034 3034 3034 3033 3033 3033 3033
3036 3037 3037 3037 3037 3038 3038 3038 3038 3038 3038 3039 3039 3039 3039 3039 3039 3039 3039 3039 3039 3039 3039 3039 3039 3039 3039 3039 3039 3039 3038 3038 3038 3038 3038 3037 3037 3037 3037 3037 3037 3037 3036 3036 3036 3036 3036 3035 3035 3035 3035 3035 3035 3035 3035 3035 3035 3035 3034 3034 3034 3034 3034 3034 3034 3034 3034 3033 3033 3033 3033 3033 3033 3033 3033 3033 3032 3032 3032 3032 3032 3031 3031 3031 3031 3031
3035 3035 3035 3035 3036 3036 3036 3036 3037 3037 3037 3037 3037 3037 3037 3038 3038 3038 3038 3038 3038 3038 3038 3038 3038 3038 3037 3037 3037 3037 3036 3036 3036 3036 3036 3035 3035 3035 3035 3035 3035 3035 3035 3035 3034 3034 3034 3034 3033 3033 3033 3033 3033 3033 3033 3033 3032 3032 3032 3032 3032 3032 3032 3032 3031 3031 3031 3031 3031 3031 3031 3031 3031 3030 3030 3030 3030 3030 3030 3030 3030 3029 3029 3029 3029 3028
3033 3034 3034 3034 3034 3035 3035 3035 3035 3035 3035 3036 3036 3036 3036 3036 3036 3036 3036 3036 3036 3036 3036 3036 3036 3036 3036 3036 3035 3035 3035 3035 3034 3034 3034 3034 3034 3033 3033 3033 3033 3033 3033 3032 3032 3032 3032 3032 3031 3031 3030 3030 3030 3030 3030 3030 3030 3030 3030 3030 3030 3030 3030 3030 3030 3029 3029 3029 3029 3029 3029 3029 3029 3029 3028 3028 3028 3028 3028 3027 3027 3027 3027 3027 3026 3026
3032 3032 3033 3033 3033 3033 3033 3034 3034 3034 3034 3034 3035 3035 3035 3035 3035 3035 3035 3035 3035 3035 3035 3035 3035 3034 3034 3034 3034 3034 3033 3033 3033 3032 3032 3032 3032 3032 3031 3031 3031 3031 3031 3030 3030 3030 3030 3030 3029 3029 3029 3029 3029 3029 3029 3028 3028 3028 3028 3028 3028 3028 3027 3027 3027 3027 3027 3027 3027 3027 3027 3027 3026 3026 3026 3026 3026 3025 3025 3025 3025 3025 3025 3024 3024 3024
3030 3031 3031 3031 3031 3032 3032 3032 3032 3033 3033 3033 3033 3033 3033 3034 3034 3034 3034 3034 3034 3034 3034 3033 3033 3033 3033 3032 3032 3032 3032 3031 3031 3030 3030 3030 3030 3030 3029 3029 3029 3029 3029 3028 3028 3028 3028 3028 3027 3027 3027 3027 3026 3026 3026 3026 3026 3026 3026 3026 3025 3025 3025 3025 3025 3025 3025 3025 3025 3025 3025 3024 3024 3024 3024 3024 3024 3023 3023 3023 3023 3022 3022 3022 3022 3021
3029 3030 3030 3030 3030 3030 3030 3031 3031 3031 3031 3032 3032 3032 3032 3032 3032 3032 3032 3032 3032 3032 3032 3032 3031 3031 3031 3031 3030 3030 3030 3030 3029 3029 3029 3029 3029 3028 3028 3027 3027 3027 3027 3026 3026 3026 3026 3025 3025 3025 3025 3025 3025 3024 3024 3024 3024 3024 3024 3024 3023 3023 3023 3023 3023 3023 3022 3022 3022 3022 3022 3022 3022 3022 3022 3021 3021 3021 3021 3020 3020 3020 3020 3020 3019 3019
3028 3028 3028 3029 3029 3029 3029 3030 3030 3030 3030 3030 3030 3030 3031 3031 3031 3031 3031 3031 3030 3030 3030 3030 3030 3030 3029 3029 3029 3029 3029 3028 3028 3027 3027 3027 3027 3026 3026 3025 3025 3025 3025 3025 3024 3024 3024 3024 3023 3023 3023 3023 3022 3022 3022 3022 3022 3022 3021 3021 3021 3021 3020 3020 3020 3020 3020 3020 3020 3020 3020 3020 3020 3020 3020 3019 3019 3019 3019 3018 3018 3018 3018 3017 3017 3017
3027 3027 3027 3027 3027 3028 3028 3028 3028 3028 3029 3029 3029 3029 3029 3029 3029 3029 3029 3029 3029 3029 3028 3028 3028 3027 3027 3027 3027 3027 3027 3026 3026 3026 3025 3025 3025 3025 3024 3024 3023 3023 3023 3022 3022 3022 3022 3021 3021 3021 3020 3020 3020 3020 3020 3020 3020 3019 3019 3019 3019 3018 3018 3018 3018 3018 3018 3018 3017 3017 3017 3017 3017 3017 3017 3017 3017 3016 3016 3016 3016 3016 3015 3015 3015 3015
3025 3025 3026 3026 3026 3026 3026 3027 3027 3027 3027 3027 3027 3027 3027 3028 3027 3027 3027 3027 3027 3027 3026 3026 3026 3025 3025 3025 3025 3025 3025 3025 3024 3024 3024 3023 3023 3023 3022 3022 3021 3021 3021 3020 3020 3020 3020 3020 3019 3019 3018 3018 3018 3017 3017 3017 3017 3017 3017 3016 3016 3016 3016 3016 3015 3015 3015 3015 3015 3015 3015 3015 3015 3015 3015 3015 3014 3014 3014 3014 3014 3013 3013 3013 3013 3013
3024 3024 3025 3025 3025 3025 3025 3025 3025 3026 3026 3026 3026 3026 3026 3026 3026 3026 3025 3025 3025 3025 3025 3025 3024 3024 3024 3023 3023 3023 3023 3023 3023 3022 3022 3021 3021 3021 3020 3020 3020 3019 3019 3019 3018 3018 3018 3017 3017 3016 3016 3015 3015 3015 3015 3015 3015 3015 3014 3014 3014 3014 3014 3013 3013 3013 3013 3013 3013 3013 3013 3013 3012 3012 3012 3012 3012 3012 3011 3011 3011 3011 3011 3011 3011 3010
3023 3023 3023 3023 3024 3024 3024 3024 3024 3025 3025 3025 3025 3025 3025 3024 3024 3024 3024 3024 3024 3023 3023 3023 3023 3022 3022 3022 3021 3021 3021 3021 3021 3020 3020 3020 3019 3019 3019 3018 3018 3017 3017 3016 3016 3016 3016 3015 3015 3014 3014 3013 3013 3012 3012 3012 3012 3012 3012 3012 3011 3011 3011 3011 3011 3010 3010 3010 3010 3010 3010 3010 3010 3010 3010 3010 3010 3009 3009 3009 3009 3009 3009 3009 3008 3008
3021 3021 3022 3022 3022 3022 3023 3023 3023 3023 3023 3023 3023 3023 3023 3023 3023 3022 3022 3022 3022 3022 3021 3021 3021 3021 3020 3020 3020 3020 3019 3020 3019 3019 3018 3018 3017 3017 3017 3016 3016 3015 3015 3015 3015 3014 3014 3013 3013 3012 3012 3011 3010 3010 3009 3009 3009 3010 3009 3009 3009 3009 3009 3009 3009 3008 3008 3008 3008 3008 3008 3008 3008 3007 3007 3007 3007 3007 3007 3006 3006 3006 3006 3006 3006 3006
3020 3020 3020 3020 3021 3021 3021 3021 3021 3022 3022 3022 3022 3021 3021 3021 3021 3021 3021 3020 3020 3020 3020 3020 3019 3019 3019 3018 3018 3018 3017 3017 3017 3017 3016 3016 3015 3015 3015 3014 3014 3014 3013 3013 3013 3012 3012 3011 3011 3010 3010 3009 3008 3007 3006 3006 3006 3007 3007 3007 3007 3007 3006 3006 3006 3006 3006 3006 3006 3006 3006 3005 3005 3005 3005 3005 3005 3005 3004 3004 3004 3004 3004 3004 3004 3003
3019 3019 3019 3019 3019 3020 3020 3020 3020 3020 3020 3020 3020 3020 3020 3020 3020 3019 3019 3019 3019 3018 3018 3018 3017 3017 3016 3016 3016 3016 3015 3015 3015 3015 3014 3014 3014 3013 3013 3012 3012 3012 3011 3011 3010 3010 3010 3010 3009 3008 3007 3006 3005 3005 3004 3004 3004 3004 3004 3004 3004 3004 3004 3004 3004 3004 3004 3004 3004 3004 3004 3003 3003 3003 3003 3003 3002 3002 3002 3002 3001 3001 3001 3001 3001 3001
3017 3017 3017 3018 3018 3018 3018 3018 3018 3018 3018 3018 3018 3018 3018 3018 3018 3017 3017 3017 3017 3016 3016 3016 3015 3015 3015 3014 3014 3014 3013 3013 3013 3013 3012 3012 3011 3011 3011 3010 3010 3010 3009 3009 3009 3008 3008 3007 3007 3006 3005 3005 3003 3002 3001 3001 3001 3001 3002 3002 3002 3002 3002 3002 3001 3001 3001 3001 3001 3001 3001 3001 3001 3001 3000 3000 3000 3000 2999 2999 2999 2999 2999 2998 2998 2998
3015 3016 3016 3016 3016 3016 3016 3016 3016 3016 3016 3016 3016 3016 3016 3016 3016 3015 3015 3015 3015 3015 3014 3014 3013 3013 3013 3012 3012 3011 3011 3011 3011 3010 3010 3010 3010 3009 3009 3009 3008 3008 3007 3007 3006 3006 3005 3005 3005 3004 3003 3002 3001 3000 2999 2999 2998 2998 2999 2999 3000 3000 3000 3000 3000 2999 2999 2999 2999 2999 2999 2999 2999 2999 2998 2998 2998 2997 2997 2997 2996 2996 2996 2996 2995 2995
3014 3014 3014 3014 3014 3015 3015 3015 3015 3014 3014 3014 3014 3014 3014 3014 3014 3013 3013 3013 3013 3012 3012 3012 3011 3011 3010 3010 3010 3010 3009 3009 3009 3009 3008 3008 3007 3007 3007 3006 3006 3005 3005 3005 3004 3004 3003 3003 3002 3002 3001 3000 3000 2998 2997 2996 2996 2995 2996 2996 2996 2997 2997 2997 2997 2997 2997 2997 2997 2997 2997 2997 2996 2996 2996 2995 2995 2995 2995 2994 2994 2994 2993 2993 2993 2993
3012 3012 3012 3012 3013 3013 3013 3012 3012 3012 3012 3012 3012 3012 3012 3012 3012 3011 3011 3011 3010 3010 3010 3010 3009 3009 3008 3008 3008 3007 3007 3007 3006 3006 3006 3005 3005 3005 3005 3004 3004 3003 3003 3002 3002 3001 3000 3000 3000 2999 2999 2998 2997 2996 2995 2995 2994 2993 2993 2993 2994 2994 2995 2995 2995 2995 2995 2995 2995 2995 2995 2995 2994 2994 2994 2993 2993 2992 2992 2992 2991 2991 2991 2990 2990 2990
3010 3010 3010 3010 3011 3011 3010 3010 3010 3010 3010 3010 3010 3010 3010 3010 3010 3009 3009 3009 3008 3008 3008 3007 3007 3007 3006 3006 3005 3005 3005 3005 3004 3004 3004 3003 3003 3002 3002 3002 3001 3001 3000 3000 2999 2999 2998 2997 2997 2996 2996 2995 2995 2995 2994 2993 2991 2990 2990 2990 2990 2991 2992 2992 2993 2993 2992 2992 2992 2992 2992 2992 2992 2992 2991 2991 2990 2990 2990 2990 2989 2989 2988 2988 2988 2988
3008 3008 3009 3009 3009 3009 3008 3008 3008 3008 3008 3008 3008 3008 3008 3008 3007 3007 3007 3006 3006 3006 3006 3005 3005 3005 3004 3004 3003 3003 3002 3002 3002 3001 3001 3001 3000 3000 3000 2999 2999 2998 2998 2997 2997 2996 2995 2995 2994 2994 2993 2993 2993 2992 2992 2991 2990 2988 2987 2987 2988 2988 2989 2990 2990 2990 2990 2990 2990 2990 2990 2990 2990 2989 2989 2988 2988 2987 2987 2987 2986 2986 2986 2985 2985 2985
3006 3006 3007 3007 3007 3007 3006 3006 3006 3006 3006 3006 3006 3006 3006 3005 3005 3005 3005 3005 3004 3004 3004 3004 3003 3003 3002 3002 3001 3000 3000 3000 2999 2999 2998 2998 2998 2998 2997 2997 2996 2996 2995 2995 2994 2994 2993 2992 2992 2991 2990 2990 2990 2990 2990 2989 2988 2986 2985 2985 2985 2985 2986 2986 2987 2987 2988 2988 2987 2987 2987 2987 2987 2987 2986 2986 2985 2985 2985 2984 2984 2983 2983 2983 2983 2983
3005 3005 3005 3005 3005 3005 3005 3005 3004 3004 3004 3004 3004 3004 3004 3003 3003 3003 3003 3003 3002 3002 3002 3001 3001 3001 3000 3000 2999 2998 2998 2997 2997 2996 2996 2995 2995 2995 2995 2994 2994 2993 2992 2992 2991 2991 2990 2990 2989 2989 2988 2988 2987 2987 2987 2987 2986 2985 2983 2983 2983 2983 2984 2984 2984 2984 2985 2985 2985 2985 2985 2985 2985 2985 2984 2984 2983 2982 2982 2982 2981 2981 2980 2980 2980 2980
3002 3002 3003 3003 3003 3003 3003 3003 3002 3002 3002 3002 3002 3002 3002 3001 3001 3001 3001 3000 3000 3000 3000 2999 2999 2998 2998 2997 2996 2996 2995 2995 2994 2994 2993 2993 2993 2992 2992 2991 2991 2990 2990 2989 2989 2988 2988 2987 2987 2986 2985 2985 2985 2985 2985 2984 2983 2982 2982 2981 2981 2981 2981 2981 2981 2981 2981 2982 2982 2982 2982 2982 2982 2982 2982 2981 2980 2980 2979 2979 2978 2978 2978 2977 2977 2977
3000 3000 3000 3001 3001 3001 3001 3001 3000 3000 3000 3000 3000 3000 3000 3000 2999 2999 2999 2998 2998 2998 2997 2997 2996 2996 2995 2995 2994 2993 2993 2992 2991 2991 2990 2990 2990 2990 2989 2989 2988 2987 2987 2986 2986 2985 2985 2985 2984 2984 2983 2983 2983 2982 2982 2981 2981 2980 2980 2979 2979 2979 2979 2978 2978 2978 2978 2979 2979 2979 2979 2980 2980 2979 2979 2979 2978 2977 2977 2976 2975 2975 2975 2975 2975 2974
2998 2998 2999 2999 2999 2999 2999 2999 2998 2998 2998 2998 2998 2998 2998 2998 2997 2997 2996 2996 2996 2995 2995 2994 2994 2994 2993 2992 2992 2991 2990 2990 2989 2988 2987 2987 2987 2986 2986 2986 2985 2985 2984 2983 2983 2982 2982 2982 2981 2981 2981 2980 2980 2980 2980 2979 2978 2978 2978 2977 2977 2977 2976 2976 2975 2975 2975 2975 2976 2976 2976 2976 2976 2976 2976 2976 2975 2975 2974 2974 2973 2972 2972 2971 2971 2971
2996 2996 2996 2996 2996 2996 2996 2996 2996 2996 2996 2996 2996 2995 2995 2995 2995 2995 2995 2994 2994 2993 2993 2992 2992 2991 2991 2990 2989 2988 2988 2987 2986 2985 2984 2984 2983 2983 2983 2983 2982 2982 2981 2981 2980 2980 2980 2979 2979 2979 2978 2978 2978 2977 2977 2977 2976 2975 2975 2975 2975 2975 2974 2974 2973 2972 2972 2972 2973 2973 2973 2973 2973 2973 2973 2973 2973 2972 2972 2971 2970 2970 2969 2968 2968 2968
2994 2994 2994 2994 2994 2994 2994 2994 2994 2994 2994 2994 2994 2994 2994 2993 2993 2993 2992 2992 2991 2991 2990 2990 2990 2989 2989 2988 2987 2986 2985 2985 2984 2983 2981 2981 2980 2980 2980 2980 2979 2979 2979 2978 2978 2977 2977 2977 2976 2976 2976 2975 2975 2975 2975 2974 2974 2974 2973 2973 2973 2972 2972 2971 2970 2970 2970 2970 2970 2970 2970 2970 2969 2969 2969 2969 2970 2970 2970 2969 2968 2967 2966 2965 2965 2965
2992 2992 2992 2992 2992 2992 2992 2992 2992 2992 2992 2992 2992 2991 2991 2991 2991 2990 2990 2990 2989 2989 2988 2988 2987 2987 2986 2985 2985 2984 2983 2982 2981 2980 2979 2978 2977 2977 2976 2976 2976 2976 2975 2975 2975 2975 2975 2975 2975 2974 2974 2973 2972 2972 2972 2972 2972 2971 2971 2970 2970 2970 2969 2969 2968 2968 2967 2967 2967 2967 2966 2966 2966 2966 2966 2966 2966 2967 2967 2967 2966 2965 2964 2963 2962 2961